Regional Weather Roundup
Issued by NWS Upton, NY

Current Version | Previous Version | Text Only | Print | Product List | Glossary On
Versions: 1 2 3 4 5 6 7 8 9 10 11 12 13 14 15 16 17 18 19 20 21 22 23 24 25 26 27
000
ASUS41 KOKX 291804
RWROKX

REGIONAL WEATHER ROUNDUP
NATIONAL WEATHER SERVICE NEW YORK NY
200 PM EDT FRI APR 29 2016

NOTE: "FAIR" INDICATES FEW OR NO CLOUDS BELOW 12,000 FEET WITH NO
SIGNIFICANT WEATHER AND/OR OBSTRUCTIONS TO VISIBILITY.

NYZ071-072-176-178-NJZ106-104-291900-
NEW YORK CITY METRO AREA


CITY           SKY/WX    TMP DP  RH WIND       PRES   REMARKS
CENTRAL PARK   CLOUDY    56  33  42 MISG      30.11F
LAGUARDIA APRT CLOUDY    57  28  33 E10G20    30.09F
KENNEDY INTL   PTSUNNY   57  30  35 E17       30.11F
NEWARK/LIBERTY CLOUDY    55  29  36 E13G21    30.08F
BRNX BOT. GARD   N/A     52  36  54 E5        30.12S
TETERBORO      CLOUDY    55  32  41 VRB6      30.08F
$$

NYZ177-179-078>081-291900-
LONG ISLAND NEW YORK

CITY           SKY/WX    TMP DP  RH WIND       PRES   REMARKS
FARMINGDALE    PTSUNNY   54  29  38 SE17G24   30.10F
ISLIP          CLOUDY    54  28  36 SE14      30.10F
SHIRLEY        CLOUDY    54  31  41 VRB7G18   30.11F
RIVERHEAD        N/A     52  34  50 S6        30.11F
WESTHAMPTON    CLOUDY    49  32  52 E14G22    30.12F
EAST HAMPTON   CLOUDY    50  34  53 E17       30.14S
MONTAUK POINT    N/A     51  35  54 VRB7G20   30.15F
$$

NYZ052-065-067-291900-
HUDSON VALLEY

CITY           SKY/WX    TMP DP  RH WIND       PRES   REMARKS
WHITE PLAINS   PTSUNNY   54  33  45 SE9G17    30.08F
NEWBURGH       PTSUNNY   55  34  44 E14       30.08F
MONTGOMERY     CLOUDY    56  33  42 S7        30.06F
POUGHKEEPSIE   CLOUDY    57  27  31 S12       30.07F
ALBANY         PTSUNNY   58  35  42 S12G18    30.06F
$$

NJZ001-105-106-008-010-013-015-019>022-104-291900-
NEW JERSEY

CITY           SKY/WX    TMP DP  RH WIND       PRES   REMARKS
NEWARK/LIBERTY CLOUDY    55  29  36 E13G21    30.08F
TETERBORO      CLOUDY    55  32  41 VRB6      30.08F
CALDWELL       CLOUDY    55  29  36 E13       30.08F
MORRISTOWN     CLOUDY    55  25  30 SE14G20   30.08F
SOMERVILLE     CLOUDY    54  31  41 E8        30.06F
SUSSEX         CLOUDY    54  33  45 SE9       30.08F
ANDOVER          N/A     54  30  40 VRB3      30.06F
TRENTON        CLOUDY    51  35  54 E12       30.07F
MILLVILLE      CLOUDY    51  46  83 NE12      30.04F
ATLANTIC CITY  CLOUDY    50  45  83 NE16G25   30.04F HAZE
WRIGHTSTOWN    CLOUDY    50  43  76 E10       30.04F
TOMS RIVER     CLOUDY    48  39  71 E10       30.09S
BELMAR         CLOUDY    49  40  71 E14G21    30.09F
$$

PAZ047>061-062-071-291900-
EASTERN PENNSYLVANIA

CITY           SKY/WX    TMP DP  RH WIND       PRES   REMARKS
PHILADELPHIA   CLOUDY    53  39  59 E13       30.07F
ALLENTOWN      CLOUDY    54  30  40 E13       30.06F
SCRANTON       CLOUDY    52  33  48 SE5       30.03S
$$

CTZ002-004>006-009-010-012-RIZ004-006-007-MAZ004-011-015-291900-
SOUTHERN NEW ENGLAND
 IN CT

CITY           SKY/WX    TMP DP  RH WIND       PRES   REMARKS
BRADLEY INTL   CLOUDY    57  36  45 S10G16    30.08F
HARTFORD       CLOUDY    58  39  49 S8        30.09F
DANBURY        CLOUDY    53  33  46 E10G18    30.10F
WTRBRY/OXFORD  PTSUNNY   54  34  47 SW7       30.10F
BRIDGEPORT     CLOUDY    51  39  63 E18       30.12F
MERIDEN        CLOUDY    57  34  41 VRB3      30.10F
NEW HAVEN      PTSUNNY   50  38  63 E15G23    30.12F
CHESTER        MOCLDY    52  34  50 VRB6G14   30.11F
GROTON         CLOUDY    50  41  71 SE18      30.13F
WILLIMANTIC    CLOUDY    59  33  37 S9        30.10F

 IN RI

CITY           SKY/WX    TMP DP  RH WIND       PRES   REMARKS
PROVIDENCE     MOSUNNY   54  32  43 VRB7      30.13F
BLOCK ISLAND   SUNNY     49  36  61 E16G22    30.14F
WESTERLY       CLOUDY    51  34  52 SE13      30.14F

 IN MA

CITY           SKY/WX    TMP DP  RH WIND       PRES   REMARKS
BOSTON         MOSUNNY   49  35  58 E20       30.16F
WORCESTER      SUNNY     52  29  41 SE8       30.09F
WESTFIELD      SUNNY     58  32  37 SW10G24   30.08F
PROVINCETOWN   MOSUNNY   50  33  52 SE9G16    30.18F
NANTUCKET      CLOUDY    49  35  58 E15       30.15F
$$

ANZ330-335-338-340-345-350-353-355-291900-
COASTAL MARINE OBSERVATIONS


STATION/POSITION TIME  SKY/WX   TEMP    WIND        PRES    VSBY  WAVE
                                AIR SEA DIR/SP/G                  HT/PER
                 (UTC)          (F)     (DEG/KT/KT) (MB)    (MI)  (FT/S)
NY HARB ENTRANCE 1650            48 51   80/ 19/ 21 1018.6          5/ 6
20S FIRE ISLAND  1650            47 49   80/ 19/ 21 1018.8          6/ 6
GREAT SOUTH BAY  1700            49 57   90/ 17/ 21   N/A
23 SSW MONTAUK P 1750            45 47   80/ 17/ 19 1019.1          5/ 6
15 E BARNEGAT LI 1722               51                N/A           6/ 6
HUDSON CANYON    1650            50 51              1017.2          7/ 7
KINGS POINT      1700            55 53              1019.1
EXECUTION ROCKS  NOT AVBL
CENTRAL LI SOUND 1700            47      90/ 16/ 19   N/A           3/ 4
EASTERN LI SOUND 1700            48 48   80/ 14/ 19   N/A
ROBBINS REEF     1700            52     100/ 19/ 22 1018.4
$$


>>>>>>>>>>>>>>>>>>>>>>>>>>>> KEY <<<<<<<<<<<<<<<<<<<<<<<<<<<
>                                                          <
>     SKY/WX - SKY CONDITION/PRESENT WEATHER               <
>     TMP    - TEMPERATURE IN FAHRENHEIT                   <
>     DP     - DEWPOINT IN FAHRENHEIT                      <
>     RH     - RELATIVE HUMIDITY IN PERCENT                <
>     WIND   - DIRECTION AND SPEED IN MPH                  <
>     PRES   - MEAN SEA LEVEL PRESSURE IN INCHES OF HG     <
>     WCI    - WIND CHILL INDEX                            <
>     VSB    - VISIBILITY IN MILES                         <
>     HX     - HEAT INDEX                                  <
>     TC     - TEMPERATURE IN CELSIUS                      <
>     VRB    - VARIABLE WIND DIRECTION                     <
>                                                          <
>>>>>>>>>>>>>>>>>>>>>>>>>>>> KEY <<<<<<<<<<<<<<<<<<<<<<<<<<<






USA.gov is the U.S. government's official web portal to all federal, state and local government web resources and services.